FW0639 Weather Reports


time (UTC)temp
F
wind
direction
speed
knots
gust
knots
rain 1hr
in
rain 24hr
in
rain mn
in
humidity
%
barometer
mb
20260901231029 77 344 0.0 1.7 0.00 0.00 0.00 38 1005.4
20260901230010 76 340 0.0 0.9 0.00 0.00 0.00 41 1005.4
20260901223748 76 337 0.0 0.0 0.00 0.00 0.00 38 1005.9
20260901222747 77 338 0.0 0.0 0.00 0.00 0.00 36 1006.1
20260901221748 77 338 0.0 3.5 0.00 0.00 0.00 31 1006.2
20260901220727 77 338 0.0 1.7 0.00 0.00 0.00 37 1006.3
20260901215717 77 339 0.0 1.7 0.00 0.00 0.00 31 1006.4
20260901214645 77 340 0.0 1.7 0.00 0.00 0.00 35 1006.4
20260901212500 80 30 0.0 0.9 0.00 0.00 0.00 33 1006.5
20260901211443 80 56 0.0 1.7 0.00 0.00 0.00 33 1006.5
20260901210501 80 59 0.0 2.6 0.00 0.00 0.00 32 1006.5
20260901205515 81 190 0.0 5.2 0.00 0.00 0.00 29 1006.5
20260901204533 81 191 0.0 1.7 0.00 0.00 0.00 27 1006.4
20260901203547 82 194 0.0 1.7 0.00 0.00 0.00 29 1006.5
20260901202533 81 194 0.0 3.5 0.00 0.00 0.00 29 1006.7
20260901201527 81 193 0.9 4.3 0.00 0.00 0.00 26 1006.8
20260901200455 81 194 0.9 4.3 0.00 0.00 0.00 26 1006.9
20260901195446 81 194 0.9 5.2 0.00 0.00 0.00 30 1006.9
20260901194452 80 194 0.0 5.2 0.00 0.00 0.00 30 1007.1
20260901193458 80 194 0.9 3.5 0.00 0.00 0.00 30 1007.3
20260901192514 80 194 0.0 4.3 0.00 0.00 0.00 27 1007.6
20260901191448 79 193 0.0 4.3 0.00 0.00 0.00 28 1007.7
20260901190432 79 190 0.9 6.1 0.00 0.00 0.00 26 1007.8
20260901185436 79 191 0.9 6.1 0.00 0.00 0.00 27 1007.8
20260901183322 78 193 0.0 0.9 0.00 0.00 0.00 30 1008.1
20260901181145 76 193 0.0 0.9 0.00 0.00 0.00 33 1008.5
20260901180156 75 323 0.0 1.7 0.00 0.00 0.00 34 1008.6
20260901175143 74 0 0.0 0.9 0.00 0.00 0.00 40 1008.8
20260901174149 74 355 0.0 7.0 0.00 0.00 0.00 38 1008.8
20260901173152 73 33 0.9 7.0 0.00 0.00 0.00 35 1009.0
20260901172129 71 345 0.0 0.0 0.00 0.00 0.00 41 1009.0
20260901171133 70 340 0.0 0.0 0.00 0.00 0.00 42 1009.1
20260901165027 67 337 0.0 2.6 0.00 0.00 0.00 44 1009.2
20260901164036 66 336 0.0 5.2 0.00 0.00 0.00 47 1009.4
20260901163015 66 336 0.0 5.2 0.00 0.00 0.00 49 1009.4
20260901162004 65 336 0.0 1.7 0.00 0.00 0.00 51 1009.5
20260901161016 65 336 0.0 0.0 0.00 0.00 0.00 57 1009.5
20260901160016 65 336 0.0 0.0 0.00 0.00 0.00 54 1009.6
20260901155040 66 336 0.0 2.6 0.00 0.00 0.00 55 1009.6
20260901154051 66 337 0.9 2.6 0.00 0.00 0.00 50 1009.7
20260901153019 65 337 1.7 3.5 0.00 0.00 0.00 52 1009.7
20260901152020 63 336 0.9 3.5 0.00 0.00 0.00 51 1009.7
20260901151040 62 336 1.7 3.5 0.00 0.00 0.00 52 1009.9
20260901150014 60 192 1.7 2.6 0.00 0.00 0.00 56 1010.0
20260901145007 59 192 0.9 2.6 0.00 0.00 0.00 57 1010.0
20260901143949 58 193 0.9 2.6 0.00 0.00 0.00 60 1010.2
20260901142916 57 193 0.9 2.6 0.00 0.00 0.00 61 1010.3
20260901140838 54 193 1.7 3.5 0.00 0.00 0.00 65 1010.2
20260901135857 53 193 0.9 3.5 0.00 0.00 0.00 66 1010.3
20260901134904 52 193 0.9 3.5 0.00 0.00 0.00 68 1010.4
20260901133842 51 193 0.0 2.6 0.00 0.00 0.00 70 1010.4
20260901132853 50 193 0.0 2.6 0.00 0.00 0.00 70 1010.4
20260901124514 49 193 0.0 0.0 0.00 0.00 0.00 73 1010.3
20260901123502 49 193 0.0 0.0 0.00 0.00 0.00 75 1010.3
20260901122501 49 193 0.0 0.0 0.00 0.00 0.00 75 1010.2
20260901121447 49 193 0.0 0.0 0.00 0.00 0.00 76 1010.2
20260901120509 49 193 0.0 0.0 0.00 0.00 0.00 75 1010.2
20260901115517 49 193 0.0 0.0 0.00 0.00 0.00 76 1010.2
20260901113315 49 193 0.0 0.0 0.00 0.00 0.00 77 1010.5
20260901112317 49 193 0.0 0.0 0.00 0.00 0.00 75 1010.5
20260901110229 50 193 0.0 0.0 0.00 0.00 0.00 74 1010.8
20260901105212 50 193 0.0 0.0 0.00 0.00 0.00 72 1010.9
20260901104205 51 193 0.0 0.0 0.00 0.00 0.00 71 1010.9
20260901103137 51 193 0.0 0.0 0.00 0.00 0.00 72 1011.1
20260901102135 51 193 0.0 0.0 0.00 0.00 0.00 70 1011.2
20260901101137 51 193 0.0 0.0 0.00 0.00 0.00 69 1011.2
20260901100154 52 193 0.0 1.7 0.00 0.00 0.00 69 1011.2
20260901095141 52 193 0.0 0.0 0.00 0.00 0.00 69 1011.3
20260901094132 52 193 0.0 0.0 0.00 0.00 0.00 69 1011.0
20260901092016 51 193 0.0 0.0 0.00 0.00 0.00 70 1011.2
20260901091012 51 193 0.0 0.0 0.00 0.00 0.00 72 1011.2
20260901085958 51 193 0.0 0.0 0.00 0.00 0.00 73 1011.3
20260901084948 51 193 0.0 0.0 0.00 0.00 0.00 73 1011.4
20260901082803 52 193 0.0 0.0 0.00 0.00 0.00 71 1011.5
20260901080616 53 193 0.0 0.0 0.00 0.00 0.00 68 1011.7
20260901072251 55 193 0.0 0.0 0.00 0.00 0.00 63 1012.3
20260901071259 56 193 0.0 0.0 0.00 0.00 0.00 62 1012.2
20260901070254 56 193 0.0 0.9 0.00 0.00 0.00 60 1012.3
20260901065239 57 193 0.0 0.0 0.00 0.00 0.00 59 1012.2
20260901063144 57 193 0.0 1.7 0.00 0.00 0.00 57 1012.3
20260901062133 57 193 0.0 1.7 0.00 0.00 0.00 57 1012.4
20260901061106 58 193 0.0 0.0 0.00 0.00 0.00 57 1012.5
20260901060121 58 193 0.0 0.0 0.00 0.00 0.00 58 1012.5
20260901055117 58 193 0.0 5.2 0.00 0.00 0.00 57 1012.6
20260901052914 57 193 0.0 3.5 0.00 0.00 0.00 58 1012.7
20260901051915 56 193 0.0 2.6 0.00 0.00 0.00 59 1012.6
20260901050857 56 193 0.0 0.0 0.00 0.00 0.00 59 1012.6
20260901045843 56 193 0.0 3.5 0.00 0.00 0.00 59 1012.7
20260901044816 56 193 0.0 0.0 0.00 0.00 0.00 60 1012.7
20260901043839 56 193 0.0 0.0 0.00 0.00 0.00 59 1012.7
20260901042901 56 193 0.0 0.0 0.00 0.00 0.00 61 1012.7
20260901040726 55 193 0.0 0.9 0.00 0.00 0.00 68 1012.7
20260901035739 56 193 0.0 0.0 0.00 0.00 0.00 66 1012.8
20260901034801 56 193 0.0 0.0 0.00 0.00 0.00 66 1012.7
20260901033808 57 355 0.0 0.0 0.00 0.00 0.00 65 1012.7
20260901032755 58 349 0.0 0.0 0.00 0.00 0.00 63 1012.6
20260901031819 59 348 0.0 0.0 0.00 0.00 0.00 61 1012.6
20260901030823 60 343 0.0 0.0 0.00 0.00 0.00 59 1012.5
20260901025832 61 343 0.0 0.0 0.00 0.00 0.00 57 1012.4
20260901024823 63 341 0.0 0.0 0.00 0.00 0.00 53 1012.2
20260901023811 64 340 0.0 0.0 0.00 0.00 0.00 48 1011.9
20260901022754 66 338 0.0 0.0 0.00 0.00 0.00 45 1011.7
20260901021737 66 338 0.0 0.0 0.00 0.00 0.00 42 1011.5
20260901020719 67 338 0.0 0.0 0.00 0.00 0.00 45 1011.5
20260901015652 68 337 0.0 0.0 0.00 0.00 0.00 44 1011.5
20260901014640 68 337 0.0 0.0 0.00 0.00 0.00 41 1011.4
20260901013639 69 336 0.0 0.0 0.00 0.00 0.00 40 1011.2
20260901011504 71 336 0.0 0.0 0.00 0.00 0.00 36 1011.2
20260901010437 72 337 0.0 0.0 0.00 0.00 0.00 37 1011.2
20260901005428 73 337 0.0 0.0 0.00 0.00 0.00 36 1011.3
20260901004418 73 337 0.0 0.0 0.00 0.00 0.00 37 1011.3
20260901003427 73 337 0.0 0.9 0.00 0.00 0.00 36 1011.3
20260901001248 72 337 0.0 0.0 0.00 0.00 0.00 40 1011.4
20260901000251 72 337 0.0 0.0 0.00 0.00 0.00 38 1011.5
20260831235225 72 338 0.0 2.6 0.00 0.00 0.00 34 1011.6
20260831234241 73 344 0.0 1.7 0.00 0.00 0.00 38 1011.5
20260831233242 73 192 0.0 3.5 0.00 0.00 0.00 35 1011.7
20260831232225 74 193 0.0 3.5 0.00 0.00 0.00 35 1011.8
20260831231237 74 193 0.0 3.5 0.00 0.00 0.00 35 1011.8